Date String (YYYY-MM-DD hh:mm:ss) UTC,Instrument flags,absolute air pressure of the measurement (hPa),sample flow rate (lpm),inlet stack bypass flow (lpm),air temperature of the measurement (°C),ambient temperature measured by the external sensor (°C),aerosol sample conditioner tube jacket temperature (°C),OPC LED temperature (°C),internal box temperature (°C),relative humidity of the measurement (%),span deviation,mass concentration of particles derived from Lorenz-Mie calculation of OPC scattering (μg/m³),mass concentration of particles derived from Lorenz-Mie calculation of OPC scattering (μg/m³),mass concentration of particles derived from Lorenz-Mie calculation of OPC scattering (μg/m³)
DateTimeUTC,F1_M11,P_M11,Q1_M11,Q2_M11,T1_M11,T2_M11,T3_M11,T4_M11,T5_M11,U1_M11,ZSPAN_M11,X2_M11,X0_M11,X1_M11
2023-08-15 15:00:00,SystemResetWarning,0838.8,5.00,000.00,029.5,028.2,000.0,038.1,031.2,23.8,0002.0,0005.89,0014.52,0004.96
2023-08-15 15:01:00,SystemResetWarning,0838.8,5.00,000.00,029.6,028.3,000.0,038.1,031.3,24.0,0000.1,0005.90,0014.58,0004.97
2023-08-15 15:02:00,SystemResetWarning,0838.8,5.01,000.00,029.6,028.2,000.0,038.1,031.3,23.8,0000.0,0005.89,0014.75,0004.97
2023-08-15 15:03:00,SystemResetWarning,0838.8,4.98,000.00,029.6,026.7,000.0,037.9,031.0,23.8,0000.0,0005.85,0015.13,0004.97
2023-08-15 15:04:00,SystemResetWarning,0838.8,5.01,000.00,029.5,025.3,000.0,037.8,030.7,24.0,0000.0,0005.85,0015.16,0004.97
2023-08-15 15:05:00,SystemResetWarning,0838.8,5.02,000.00,029.4,025.5,000.0,037.7,030.7,24.5,0000.2,0005.84,0014.58,0004.96
2023-08-15 15:06:00,SystemResetWarning,0838.8,5.00,000.00,029.4,025.8,000.0,037.8,030.6,24.9,0000.0,0005.86,0014.01,0004.96
2023-08-15 15:07:00,SystemResetWarning,0838.8,5.01,000.00,029.3,026.2,000.0,037.8,030.7,24.5,0000.0,0005.85,0013.53,0004.96
2023-08-15 15:08:00,SystemResetWarning,0838.8,5.00,000.00,029.3,026.5,000.0,037.8,030.7,24.4,0000.0,0005.83,0012.83,0004.95
2023-08-15 15:09:00,SystemResetWarning,0838.8,5.00,000.00,029.3,026.9,000.0,037.9,030.8,24.7,0000.0,0005.81,0012.42,0004.94
2023-08-15 15:10:00,SystemResetWarning,0838.8,5.00,000.00,029.3,027.1,000.0,037.9,030.9,24.8,0000.0,0005.84,0012.50,0004.94
2023-08-15 15:11:00,SystemResetWarning,0838.8,5.00,000.00,029.3,027.4,000.0,037.9,030.9,24.7,0000.0,0005.82,0012.31,0004.94
2023-08-15 15:12:00,SystemResetWarning,0838.8,5.00,000.00,029.3,027.6,000.0,037.9,031.0,24.7,0000.1,0005.83,0012.12,0004.93
2023-08-15 15:13:00,SystemResetWarning,0838.8,5.00,000.00,029.4,027.8,000.0,037.9,031.0,24.8,0000.2,0005.81,0011.87,0004.92
2023-08-15 15:14:00,SystemResetWarning,0838.8,5.00,000.00,029.4,027.9,000.0,037.9,031.1,24.6,0000.0,0005.79,0011.52,0004.91
2023-08-15 15:15:00,SystemResetWarning,0838.8,5.00,000.00,029.4,028.0,000.0,037.9,031.1,24.4,0000.0,0005.79,0012.08,0004.91
2023-08-15 15:16:00,SystemResetWarning,0838.8,5.00,000.00,029.4,028.1,000.0,037.9,031.1,24.6,0000.0,0005.80,0012.27,0004.92
2023-08-15 15:17:00,SystemResetWarning,0838.8,5.00,000.00,029.5,028.2,000.0,038.0,031.2,24.5,0000.0,0005.82,0012.76,0004.95
2023-08-15 15:18:00,SystemResetWarning,0838.8,5.00,000.00,029.5,028.3,000.0,038.0,031.2,24.4,-001.0,0005.85,0013.29,0004.95
2023-08-15 15:19:00,SystemResetWarning,0838.8,4.99,000.00,029.5,027.6,000.0,037.9,031.1,24.1,-000.4,0005.85,0013.31,0004.95
2023-08-15 15:20:00,SystemResetWarning,0838.8,5.00,000.00,029.5,025.8,000.0,037.8,030.8,24.4,-000.3,0005.85,0013.48,0004.95
2023-08-15 15:21:00,SystemResetWarning,0838.8,5.01,000.00,029.4,025.2,000.0,037.7,030.6,24.3,-000.3,0005.83,0013.39,0004.93
2023-08-15 15:22:00,SystemResetWarning,0838.7,5.01,000.00,029.3,025.6,000.0,037.7,030.5,24.6,0000.1,0005.77,0012.85,0004.92
2023-08-15 15:23:00,SystemResetWarning,0838.8,5.00,000.00,029.2,025.9,000.0,037.7,030.6,24.8,-000.3,0005.72,0012.57,0004.91
2023-08-15 15:24:00,SystemResetWarning,0838.8,5.00,000.00,029.2,026.3,000.0,037.7,030.6,24.3,-000.6,0005.68,0012.78,0004.90
2023-08-15 15:25:00,SystemResetWarning,0838.8,4.99,000.00,029.2,026.7,000.0,037.8,030.7,24.6,-000.4,0005.72,0013.20,0004.90
2023-08-15 15:26:00,SystemResetWarning,0838.7,5.00,000.00,029.2,027.0,000.0,037.8,030.8,24.9,-000.1,0005.75,0012.93,0004.89
2023-08-15 15:27:00,SystemResetWarning,0838.8,5.00,000.00,029.2,027.2,000.0,037.8,030.8,25.1,0000.4,0005.75,0012.91,0004.87
2023-08-15 15:28:00,SystemResetWarning,0838.7,5.00,000.00,029.3,027.5,000.0,037.8,030.9,24.7,0000.6,0005.71,0012.98,0004.85
2023-08-15 15:29:00,SystemResetWarning,0838.8,5.00,000.00,029.3,027.6,000.0,037.8,030.9,24.7,0001.2,0005.67,0012.28,0004.83
2023-08-15 15:30:00,SystemResetWarning,0838.8,5.01,000.00,029.3,027.8,000.0,037.8,031.0,24.0,0001.4,0005.70,0012.19,0004.83
2023-08-15 15:31:00,SystemResetWarning,0838.7,5.00,000.00,029.3,027.9,000.0,037.8,031.0,24.2,0001.2,0005.69,0011.99,0004.82
2023-08-15 15:32:00,SystemResetWarning,0838.8,5.00,000.00,029.4,028.1,000.0,037.9,031.1,23.9,0001.3,0005.67,0011.87,0004.82
2023-08-15 15:33:00,SystemResetWarning,0838.7,5.00,000.00,029.4,028.2,000.0,037.9,031.1,24.1,0000.9,0005.72,0011.96,0004.83
2023-08-15 15:34:00,SystemResetWarning,0838.7,4.99,000.00,029.5,028.1,000.0,037.9,031.1,24.7,0000.9,0005.74,0012.44,0004.83
2023-08-15 15:35:00,SystemResetWarning,0838.8,4.99,000.00,029.4,026.6,000.0,037.7,030.9,24.7,0000.0,0005.75,0012.23,0004.85
2023-08-15 15:36:00,SystemResetWarning,0838.8,5.00,000.00,029.3,025.3,000.0,037.6,030.6,24.5,0000.0,0005.68,0011.42,0004.85
2023-08-15 15:37:00,SystemResetWarning,0838.7,5.01,000.00,029.3,025.4,000.0,037.6,030.5,24.1,0000.0,0005.64,0011.25,0004.84
2023-08-15 15:38:00,SystemResetWarning,0838.8,5.01,000.00,029.2,025.7,000.0,037.6,030.5,24.6,0000.0,0005.63,0011.25,0004.84
2023-08-15 15:39:00,SystemResetWarning,0838.7,5.00,000.00,029.2,026.1,000.0,037.6,030.5,24.6,0000.0,0005.62,0010.89,0004.85
2023-08-15 15:40:00,SystemResetWarning,0838.7,5.00,000.00,029.2,026.5,000.0,037.7,030.6,24.7,0000.0,0005.63,0011.35,0004.87
2023-08-15 15:41:00,SystemResetWarning,0838.7,5.00,000.00,029.2,026.8,000.0,037.7,030.7,25.1,0000.0,0005.60,0013.23,0004.88
2023-08-15 15:42:00,SystemResetWarning,0838.7,5.00,000.00,029.2,027.1,000.0,037.7,030.8,25.0,0000.0,0005.59,0013.97,0004.88
2023-08-15 15:43:00,SystemResetWarning,0838.7,5.00,000.00,029.2,027.3,000.0,037.7,030.8,24.3,0000.0,0005.59,0014.40,0004.88
2023-08-15 15:44:00,SystemResetWarning,0838.7,5.00,000.00,029.2,027.5,000.0,037.7,030.9,25.1,0000.0,0005.60,0014.71,0004.89
2023-08-15 15:45:00,SystemResetWarning,0838.7,5.00,000.00,029.3,027.7,000.0,037.7,030.9,25.4,0000.0,0005.63,0014.82,0004.89
2023-08-15 15:46:00,SystemResetWarning,0838.7,5.00,000.00,029.3,027.9,000.0,037.7,031.0,25.7,-000.2,0005.63,0014.58,0004.88
2023-08-15 15:47:00,SystemResetWarning,0838.7,5.00,000.00,029.3,028.0,000.0,037.8,031.0,25.3,-000.1,0005.69,0015.06,0004.89
2023-08-15 15:48:00,SystemResetWarning,0838.7,5.00,000.00,029.4,028.1,000.0,037.8,031.1,24.9,-000.3,0005.74,0015.25,0004.90
2023-08-15 15:49:00,SystemResetWarning,0838.7,4.99,000.00,029.4,028.2,000.0,037.8,031.1,25.0,-000.1,0005.77,0015.15,0004.93
2023-08-15 15:50:00,SystemResetWarning,0838.7,4.99,000.00,029.4,027.4,000.0,037.7,031.0,24.5,0000.9,0005.82,0015.49,0004.94
2023-08-15 15:51:00,SystemResetWarning,0838.7,5.00,000.00,029.3,025.7,000.0,037.6,030.7,24.1,0001.1,0005.82,0015.10,0004.95
2023-08-15 15:52:00,SystemResetWarning,0838.6,5.01,000.00,029.3,025.3,000.0,037.5,030.5,23.7,0000.6,0005.82,0014.26,0004.97
2023-08-15 15:53:00,SystemResetWarning,0838.6,5.01,000.00,029.2,025.6,000.0,037.5,030.5,23.0,0001.4,0005.84,0013.88,0005.00
2023-08-15 15:54:00,SystemResetWarning,0838.6,5.00,000.00,029.1,025.9,000.0,037.6,030.5,23.8,0001.2,0005.86,0013.48,0005.03
2023-08-15 15:55:00,SystemResetWarning,0838.6,5.00,000.00,029.1,026.3,000.0,037.6,030.6,23.4,0001.4,0005.85,0013.74,0005.04
2023-08-15 15:56:00,SystemResetWarning,0838.7,4.99,000.00,029.1,026.7,000.0,037.6,030.7,23.5,0001.5,0005.84,0013.50,0005.06
2023-08-15 15:57:00,SystemResetWarning,0838.7,5.00,000.00,029.1,027.0,000.0,037.6,030.7,24.2,0001.7,0005.89,0013.67,0005.09
2023-08-15 15:58:00,SystemResetWarning,0838.7,5.00,000.00,029.2,027.2,000.0,037.7,030.8,24.4,0002.1,0005.92,0013.41,0005.10
2023-08-15 15:59:00,SystemResetWarning,0838.7,5.00,000.00,029.2,027.5,000.0,037.7,030.9,25.1,0002.0,0005.90,0013.46,0005.09
